カタログに戻る

STARLINK-35485

運用中通信VLEO
NORAD 66251·PAYLOAD·🇺🇸 United States

打ち上げ Oct 29, 2025 から Cape Canaveral Space Force Station

Loading…

次のパス (今後24時間)

TLE

最新Source: CelesTrak SupGP

元期: Sep 14, 2026, 21:27 UTC

1 66251C 25245T   26257.89423611 -.00037641  00000+0 -12106-2 0  2575
2 66251  53.1578 123.4751 0001342  87.7178  29.7491 15.31716180    18

AllMySatでSTARLINK-35485をリアルタイム追跡

Download on the App Store